Regional Weather Roundup
Issued by NWS Cleveland, OH

Home | Current Version | Previous Version | Text Only | Print | Product List | Glossary Off
Versions: 1 2 3 4 5 6 7 8 9 10 11 12 13 14 15 16 17 18 19 20 21 22 23 24 25 26 27 28 29 30 31 32 33 34 35 36 37 38 39 40 41 42 43 44 45 46 47 48 49 50

798
ASUS41 KCLE 290610
RWRCLE
OHIO REGIONAL WEATHER ROUNDUP
NATIONAL WEATHER SERVICE CLEVELAND, OH
200 AM EDT WED MAR 29 2017

NOTE: "FAIR" INDICATES FEW OR NO CLOUDS BELOW 12,000 FEET WITH NO
SIGNIFICANT WEATHER AND/OR OBSTRUCTIONS TO VISIBILITY.

OHZ001>008-015>018-024>027-034-035-043-044-290700-
   NORTHWEST OHIO

CITY           SKY/WX    TMP DP  RH WIND       PRES   REMARKS
DEFIANCE       CLEAR     38  35  89 N5        30.21S
FINDLAY        CLOUDY    40  33  76 E8        30.20R
TOLEDO EXPRESS CLEAR     34  34 100 CALM      30.21S
TOLEDO EXEC    CLEAR     37  34  89 NE3       30.22F
LIMA           CLOUDY    44  40  85 NE7       30.18S
$$

OHZ009>014-019>023-028>033-038-089-290700-
   NORTHEAST OHIO

CITY           SKY/WX    TMP DP  RH WIND       PRES   REMARKS
CLE-HOPKINS    CLOUDY    38  33  82 NW5       30.22S
CLE-LAKEFRONT  CLOUDY    38  35  89 N7        30.20S
CUY CO. ARPT   NOT AVBL
LORAIN-ELYRIA  CLOUDY    37  32  82 NE6       30.21R
ASHTABULA      CLOUDY    38  37  97 NW5       30.19R
AKRON-CANTON   CLOUDY    41  38  89 N8        30.16S FOG
WOOSTER        CLOUDY    40  37  89 N9        30.18S
MANSFIELD      CLOUDY    37  36  96 N10       30.17F
YOUNGSTOWN     CLOUDY    41  39  93 N10       30.16R
$$

OHZ042-051>053-060>062-070>072-077>081-290700-
  SOUTHWEST OHIO

CITY           SKY/WX    TMP DP  RH WIND       PRES   REMARKS
CINC-COVINGTON CLOUDY    52  47  83 NE10      30.12F
CINC-LUNKEN    CLOUDY    52  48  86 NE9       30.15R
HAMILTON       CLOUDY    51  46  83 NE10      30.15F
DAYTON         CLOUDY    46  41  82 NE12      30.17S
WRIGHT-PAT AFB CLOUDY    46  44  91 NE10      30.16S
DAYTON GENERAL CLOUDY    48  43  82 NE10      30.15S
WILMINGTON     CLOUDY    45  42  89 NE14      30.15S
$$

OHZ036-037-039>041-045>050-054>059-063>069-073>076-082>088-290700-
  CENTRAL AND SOUTHEAST OHIO

CITY           SKY/WX    TMP DP  RH WIND       PRES   REMARKS
COLUMBUS       PTCLDY    43  38  82 N3        30.16S
OSU AIRPORT    CLEAR     41  38  89 N3        30.17F
BOLTON FIELD   MOCLDY    42  38  86 N6        30.18S
RICKENBACK AFB CLOUDY    44  41  87 N6        30.17S
NEWARK         CLEAR     41  37  86 CALM      30.16S
MARION         CLEAR     36  32  85 N8        30.19S
LANCASTER      CLEAR     45  40  82 NE5       30.16F
ZANESVILLE     CLOUDY    44  37  76 NE7       30.16R
NEW PHILLY     NOT AVBL
$$




USA.gov is the U.S. government's official web portal to all federal, state and local government web resources and services.